SXS937 EDLW-LTBJ

Flight info

Callsign SXS937
Flight time 3h 2m
Altitude 35000
Route GMH8Q/06 GMH Q603 TESGA DCT ESATI DCT DETEV DCT DINKU M867 XERUM DCT BAVAX DCT RADIZ DCT GORPA DCT DEVUL DCT REMSO DCT MEDUX UM867 KOGAT DCT DISOR UL608 FSK UN128 RIKSO
Aircraft B738/M-SDE2E3FGHIRWXY/LB1

Departure

Time 2026-05-06 16:31
Airport Dortmund Airport (EDLW)

Arrival

Time 2026-05-06 19:34
Airport Adnan Menderes International Airport (LTBJ)
Time Latitude Longitude Altitude Speed Heading
2026-05-06 15:34 51.51416 7.60998 441 ft 0 kts 142°
2026-05-06 16:05 51.51416 7.60996 440 ft 0 kts 142°
2026-05-06 16:06 51.51427 7.60984 440 ft 2 kts 141°
2026-05-06 16:06 51.51438 7.60969 439 ft 2 kts 142°
2026-05-06 16:06 51.51446 7.60960 438 ft 1 kts 142°
2026-05-06 16:06 51.51456 7.60942 437 ft 2 kts 110°
2026-05-06 16:07 51.51459 7.60918 437 ft 2 kts 83°
2026-05-06 16:07 51.51456 7.60902 437 ft 0 kts 63°
2026-05-06 16:07 51.51452 7.60891 438 ft 0 kts 60°
2026-05-06 16:19 51.51458 7.60910 437 ft 6 kts 63°
2026-05-06 16:19 51.51461 7.60920 437 ft 0 kts 61°
2026-05-06 16:21 51.51462 7.60920 437 ft 0 kts 61°
2026-05-06 16:21 51.51474 7.60956 436 ft 4 kts 60°
2026-05-06 16:21 51.51494 7.61012 434 ft 6 kts 61°
2026-05-06 16:22 51.51516 7.61058 432 ft 4 kts 28°
2026-05-06 16:22 51.51556 7.61055 429 ft 4 kts 334°
2026-05-06 16:22 51.51562 7.61048 429 ft 1 kts 315°
2026-05-06 16:22 51.51571 7.61023 428 ft 2 kts 281°
2026-05-06 16:23 51.51570 7.61004 428 ft 0 kts 261°
2026-05-06 16:23 51.51562 7.60978 429 ft 1 kts 238°
2026-05-06 16:23 51.51549 7.60949 430 ft 1 kts 236°
2026-05-06 16:24 51.51543 7.60931 430 ft 7 kts 241°
2026-05-06 16:24 51.51516 7.60853 432 ft 6 kts 241°
2026-05-06 16:24 51.51502 7.60810 433 ft 2 kts 241°
2026-05-06 16:24 51.51496 7.60792 434 ft 5 kts 242°
2026-05-06 16:25 51.51483 7.60751 435 ft 9 kts 243°
2026-05-06 16:25 51.51457 7.60676 437 ft 5 kts 236°
2026-05-06 16:25 51.51448 7.60646 438 ft 0 kts 244°
2026-05-06 16:25 51.51440 7.60624 438 ft 4 kts 242°
2026-05-06 16:26 51.51430 7.60595 438 ft 0 kts 240°
2026-05-06 16:26 51.51431 7.60595 438 ft 0 kts 240°
2026-05-06 16:28 51.51427 7.60586 438 ft 5 kts 239°
2026-05-06 16:28 51.51410 7.60539 438 ft 0 kts 239°
2026-05-06 16:29 51.51400 7.60513 439 ft 15 kts 239°
2026-05-06 16:29 51.51360 7.60347 442 ft 10 kts 277°
2026-05-06 16:29 51.51414 7.60258 437 ft 12 kts 324°
2026-05-06 16:29 51.51470 7.60228 433 ft 6 kts 25°
2026-05-06 16:30 51.51479 7.60235 432 ft 2 kts 36°
2026-05-06 16:30 51.51492 7.60258 431 ft 5 kts 50°
2026-05-06 16:30 51.51516 7.60323 429 ft 4 kts 63°
2026-05-06 16:30 51.51621 7.60622 422 ft 72 kts 59°
2026-05-06 16:31 51.52008 7.61723 405 ft 150 kts 60°
2026-05-06 16:31 51.52587 7.63372 849 ft 178 kts 59°
2026-05-06 16:31 51.53130 7.64951 2043 ft 160 kts 57°
2026-05-06 16:31 51.53733 7.66538 2399 ft 178 kts 56°
2026-05-06 16:32 51.54372 7.68270 3035 ft 180 kts 57°
2026-05-06 16:32 51.54944 7.69927 3845 ft 170 kts 58°
2026-05-06 16:32 51.55573 7.71724 4063 ft 197 kts 57°
2026-05-06 16:32 51.56239 7.73718 4439 ft 213 kts 67°
2026-05-06 16:33 51.56319 7.76223 4820 ft 238 kts 104°
2026-05-06 16:33 51.55506 7.78579 5356 ft 253 kts 126°
2026-05-06 16:33 51.54140 7.80481 5956 ft 267 kts 154°
2026-05-06 16:34 51.50384 7.81538 7153 ft 286 kts 177°
2026-05-06 16:34 51.48392 7.81794 7876 ft 291 kts 175°
2026-05-06 16:34 51.46377 7.82166 8680 ft 293 kts 173°
2026-05-06 16:34 51.44364 7.82621 9437 ft 296 kts 173°
2026-05-06 16:35 51.42331 7.83115 10181 ft 299 kts 172°
2026-05-06 16:35 51.40247 7.83626 10609 ft 313 kts 173°
2026-05-06 16:35 51.37307 7.84339 11159 ft 332 kts 173°
2026-05-06 16:35 51.35777 7.84708 11327 ft 338 kts 173°
2026-05-06 16:36 51.33376 7.85286 11631 ft 355 kts 173°
2026-05-06 16:36 51.30875 7.85885 12063 ft 368 kts 173°
2026-05-06 16:36 51.28329 7.86494 12597 ft 377 kts 173°
2026-05-06 16:36 51.25729 7.87115 13325 ft 379 kts 173°
2026-05-06 16:37 51.23136 7.87734 14026 ft 382 kts 173°
2026-05-06 16:37 51.20511 7.88410 14687 ft 387 kts 171°
2026-05-06 16:37 51.17903 7.89440 15350 ft 391 kts 163°
2026-05-06 16:37 51.15355 7.91090 16018 ft 395 kts 156°
2026-05-06 16:38 51.12958 7.93157 16651 ft 399 kts 151°
2026-05-06 16:38 51.10590 7.95481 17266 ft 403 kts 149°
2026-05-06 16:38 51.08237 7.97924 17889 ft 407 kts 149°
2026-05-06 16:38 51.05875 8.00412 18492 ft 410 kts 149°
2026-05-06 16:39 51.03499 8.02901 19126 ft 411 kts 149°
2026-05-06 16:39 51.01097 8.05387 19768 ft 413 kts 149°
2026-05-06 16:39 50.98701 8.07837 20310 ft 416 kts 150°
2026-05-06 16:39 50.96255 8.10317 20899 ft 419 kts 150°
2026-05-06 16:40 50.93801 8.12794 21448 ft 421 kts 150°
2026-05-06 16:40 50.91304 8.15307 22005 ft 424 kts 149°
2026-05-06 16:40 50.88834 8.17788 22519 ft 427 kts 149°
2026-05-06 16:40 50.86303 8.20328 23028 ft 430 kts 149°
2026-05-06 16:41 50.83772 8.22865 23537 ft 433 kts 149°
2026-05-06 16:41 50.81265 8.25375 24102 ft 434 kts 149°
2026-05-06 16:41 50.78712 8.27929 24559 ft 437 kts 149°
2026-05-06 16:41 50.76128 8.30510 25079 ft 439 kts 150°
2026-05-06 16:42 50.73546 8.33086 25590 ft 441 kts 149°
2026-05-06 16:42 50.70963 8.35661 26034 ft 444 kts 149°
2026-05-06 16:42 50.68356 8.38256 26570 ft 445 kts 149°
2026-05-06 16:42 50.65739 8.40857 26983 ft 448 kts 149°
2026-05-06 16:43 50.63114 8.43463 27463 ft 449 kts 150°
2026-05-06 16:43 50.60454 8.46102 27876 ft 451 kts 150°
2026-05-06 16:43 50.57824 8.48705 28268 ft 454 kts 150°
2026-05-06 16:43 50.55156 8.51343 28766 ft 454 kts 150°
2026-05-06 16:44 50.52502 8.53966 29443 ft 449 kts 150°
2026-05-06 16:44 50.49861 8.56574 30072 ft 445 kts 150°
2026-05-06 16:44 50.47265 8.59157 30656 ft 443 kts 149°
2026-05-06 16:44 50.44767 8.61910 31151 ft 442 kts 145°
2026-05-06 16:45 50.41610 8.66052 31593 ft 445 kts 142°
2026-05-06 16:45 50.40096 8.68224 31840 ft 444 kts 141°
2026-05-06 16:45 50.37862 8.71552 32172 ft 445 kts 140°
2026-05-06 16:45 50.35647 8.74924 32498 ft 444 kts 139°
2026-05-06 16:46 50.33476 8.78251 32797 ft 443 kts 139°
2026-05-06 16:46 50.31269 8.81627 33029 ft 444 kts 140°
2026-05-06 16:46 50.29048 8.85006 33263 ft 444 kts 140°
2026-05-06 16:46 50.26858 8.88324 33535 ft 443 kts 140°
2026-05-06 16:47 50.24657 8.91642 33752 ft 443 kts 140°
2026-05-06 16:47 50.22420 8.95000 33981 ft 443 kts 140°
2026-05-06 16:47 50.20202 8.98321 34190 ft 443 kts 140°
2026-05-06 16:47 50.17995 9.01615 34385 ft 443 kts 140°
2026-05-06 16:48 50.15786 9.04905 34614 ft 443 kts 140°
2026-05-06 16:48 50.13560 9.08215 34759 ft 444 kts 140°
2026-05-06 16:48 50.11326 9.11529 34765 ft 445 kts 140°
2026-05-06 16:49 50.06847 9.18164 34769 ft 443 kts 141°
2026-05-06 16:49 50.02397 9.24740 34764 ft 443 kts 140°
2026-05-06 16:50 49.97953 9.31295 34765 ft 442 kts 141°
2026-05-06 16:50 49.93509 9.37835 34765 ft 443 kts 141°
2026-05-06 16:51 49.89046 9.44383 34764 ft 442 kts 141°
2026-05-06 16:51 49.84574 9.50929 34766 ft 441 kts 141°
2026-05-06 16:52 49.80122 9.57423 34760 ft 442 kts 141°
2026-05-06 16:52 49.75659 9.63906 34764 ft 440 kts 141°
2026-05-06 16:53 49.71291 9.70233 34772 ft 440 kts 142°
2026-05-06 16:53 49.66841 9.76664 34773 ft 439 kts 142°
2026-05-06 16:54 49.62420 9.83037 34774 ft 438 kts 142°
2026-05-06 16:54 49.57968 9.89435 34781 ft 439 kts 143°
2026-05-06 16:55 49.53508 9.95828 34784 ft 439 kts 143°
2026-05-06 16:55 49.49039 10.02217 34782 ft 441 kts 143°
2026-05-06 16:56 49.44567 10.08596 34768 ft 440 kts 143°
2026-05-06 16:56 49.40078 10.14982 34793 ft 443 kts 142°
2026-05-06 16:57 49.35563 10.21389 34792 ft 441 kts 142°
2026-05-06 16:57 49.31077 10.27739 34798 ft 442 kts 143°
2026-05-06 16:58 49.26577 10.34084 34808 ft 440 kts 143°
2026-05-06 16:58 49.21890 10.39928 34805 ft 433 kts 150°
2026-05-06 16:59 49.16842 10.44787 34796 ft 430 kts 154°
2026-05-06 16:59 49.11662 10.49390 34804 ft 430 kts 155°
2026-05-06 17:00 49.06530 10.53939 34795 ft 429 kts 155°
2026-05-06 17:00 49.01399 10.58522 34794 ft 429 kts 155°
2026-05-06 17:01 48.96225 10.63171 34793 ft 431 kts 155°
2026-05-06 17:01 48.91117 10.67767 34788 ft 429 kts 155°
2026-05-06 17:02 48.85970 10.72393 34800 ft 431 kts 155°
2026-05-06 17:02 48.81015 10.77605 34796 ft 438 kts 146°
2026-05-06 17:03 48.76631 10.84001 34796 ft 442 kts 140°
2026-05-06 17:03 48.72478 10.90920 34803 ft 446 kts 138°
2026-05-06 17:04 48.68379 10.97915 34801 ft 446 kts 138°
2026-05-06 17:04 48.64259 11.04898 34803 ft 445 kts 139°
2026-05-06 17:05 48.60131 11.11816 34798 ft 444 kts 139°
2026-05-06 17:05 48.56009 11.18678 34802 ft 444 kts 139°
2026-05-06 17:06 48.51876 11.25530 34790 ft 443 kts 139°
2026-05-06 17:06 48.47725 11.32384 34789 ft 444 kts 139°
2026-05-06 17:07 48.43577 11.39216 34793 ft 444 kts 139°
2026-05-06 17:07 48.39411 11.46058 34788 ft 444 kts 139°
2026-05-06 17:08 48.35212 11.52934 34784 ft 446 kts 139°
2026-05-06 17:08 48.31012 11.59794 34796 ft 449 kts 139°
2026-05-06 17:09 48.26833 11.66610 34789 ft 446 kts 140°
2026-05-06 17:09 48.22490 11.73176 34785 ft 443 kts 144°
2026-05-06 17:10 48.17930 11.79363 34791 ft 442 kts 146°
2026-05-06 17:10 48.13340 11.85494 34787 ft 442 kts 145°
2026-05-06 17:11 48.08787 11.91618 34790 ft 446 kts 145°
2026-05-06 17:11 48.04205 11.97812 34788 ft 447 kts 145°
2026-05-06 17:12 47.99600 12.04063 34784 ft 447 kts 145°
2026-05-06 17:12 47.94996 12.10306 34792 ft 450 kts 144°
2026-05-06 17:13 47.90384 12.16550 34790 ft 455 kts 145°
2026-05-06 17:13 47.85684 12.22885 34808 ft 463 kts 145°
2026-05-06 17:14 47.80896 12.29331 34806 ft 468 kts 144°
2026-05-06 17:14 47.76094 12.35793 34828 ft 468 kts 144°
2026-05-06 17:15 47.71297 12.42234 34826 ft 465 kts 144°
2026-05-06 17:15 47.66512 12.48639 34838 ft 468 kts 144°
2026-05-06 17:16 47.64980 12.50684 34850 ft 466 kts 144°
2026-05-06 17:16 47.60870 12.56349 34846 ft 468 kts 141°
2026-05-06 17:17 47.56403 12.63319 34849 ft 472 kts 139°
2026-05-06 17:17 47.54169 12.66962 34864 ft 471 kts 139°
2026-05-06 17:18 47.51049 12.72069 34858 ft 473 kts 139°
2026-05-06 17:19 47.46641 12.79219 34861 ft 471 kts 139°
2026-05-06 17:19 47.42215 12.86301 34863 ft 473 kts 140°
2026-05-06 17:20 47.37764 12.93362 34865 ft 472 kts 140°
2026-05-06 17:20 47.33284 13.00435 34873 ft 471 kts 140°
2026-05-06 17:21 47.28830 13.07436 34899 ft 473 kts 140°
2026-05-06 17:21 47.24314 13.14512 34883 ft 473 kts 140°
2026-05-06 17:22 47.19841 13.21512 34874 ft 474 kts 140°
2026-05-06 17:22 47.15399 13.28443 34864 ft 473 kts 139°
2026-05-06 17:23 47.10910 13.35422 34869 ft 474 kts 139°
2026-05-06 17:23 47.06398 13.42420 34873 ft 475 kts 139°
2026-05-06 17:24 47.01937 13.49328 34879 ft 473 kts 139°
2026-05-06 17:24 46.97419 13.56301 34886 ft 474 kts 139°
2026-05-06 17:25 46.92920 13.63227 34876 ft 474 kts 139°
2026-05-06 17:25 46.88357 13.70232 34876 ft 474 kts 139°
2026-05-06 17:26 46.83838 13.77152 34897 ft 476 kts 139°
2026-05-06 17:26 46.79314 13.84062 34894 ft 475 kts 139°
2026-05-06 17:27 46.74788 13.90962 34896 ft 474 kts 139°
2026-05-06 17:27 46.70215 13.97908 34885 ft 475 kts 139°
2026-05-06 17:28 46.65686 14.04774 34902 ft 473 kts 139°
2026-05-06 17:28 46.62003 14.10342 34897 ft 475 kts 139°
2026-05-06 17:29 46.57443 14.17223 34890 ft 474 kts 139°
2026-05-06 17:29 46.52889 14.24076 34897 ft 474 kts 139°
2026-05-06 17:30 46.48318 14.30936 34899 ft 473 kts 139°
2026-05-06 17:30 46.43741 14.37783 34901 ft 475 kts 139°
2026-05-06 17:31 46.39165 14.44614 34901 ft 474 kts 139°
2026-05-06 17:31 46.34557 14.51476 34902 ft 475 kts 139°
2026-05-06 17:32 46.29987 14.58266 34908 ft 475 kts 139°
2026-05-06 17:32 46.25384 14.65085 34917 ft 475 kts 139°
2026-05-06 17:33 46.20762 14.71915 34910 ft 474 kts 139°
2026-05-06 17:33 46.16177 14.78670 34909 ft 475 kts 139°
2026-05-06 17:34 46.11556 14.85464 34902 ft 475 kts 139°
2026-05-06 17:34 46.06939 14.92233 34890 ft 476 kts 139°
2026-05-06 17:35 46.02309 14.99007 34901 ft 475 kts 139°
2026-05-06 17:35 45.97673 15.05771 34902 ft 475 kts 139°
2026-05-06 17:36 45.90732 15.15868 34905 ft 477 kts 139°
2026-05-06 17:36 45.86072 15.22621 34907 ft 477 kts 139°
2026-05-06 17:37 45.81395 15.29384 34905 ft 477 kts 139°
2026-05-06 17:37 45.76756 15.36147 34904 ft 478 kts 137°
2026-05-06 17:38 45.72391 15.43309 34903 ft 480 kts 134°
2026-05-06 17:38 45.68151 15.50726 34898 ft 482 kts 133°
2026-05-06 17:39 45.63947 15.58092 34894 ft 482 kts 133°
2026-05-06 17:39 45.59672 15.65492 34893 ft 483 kts 134°
2026-05-06 17:40 45.55368 15.72865 34892 ft 483 kts 135°
2026-05-06 17:40 45.51091 15.80149 34890 ft 483 kts 135°
2026-05-06 17:41 45.46773 15.87474 34892 ft 485 kts 135°
2026-05-06 17:41 45.42444 15.94797 34887 ft 485 kts 136°
2026-05-06 17:42 45.38088 16.02145 34888 ft 486 kts 136°
2026-05-06 17:42 45.33724 16.09486 34900 ft 487 kts 136°
2026-05-06 17:43 45.29355 16.16823 34905 ft 488 kts 135°
2026-05-06 17:43 45.24978 16.24146 34906 ft 487 kts 135°
2026-05-06 17:44 45.20606 16.31442 34911 ft 490 kts 135°
2026-05-06 17:44 45.16202 16.38774 34914 ft 489 kts 135°
2026-05-06 17:45 45.11820 16.46042 34914 ft 489 kts 136°
2026-05-06 17:45 45.07319 16.53263 34916 ft 488 kts 136°
2026-05-06 17:46 45.02788 16.60382 34918 ft 488 kts 137°
2026-05-06 17:46 44.98249 16.67486 34916 ft 488 kts 137°
2026-05-06 17:47 44.93732 16.74568 34928 ft 488 kts 137°
2026-05-06 17:47 44.89179 16.81705 34937 ft 489 kts 137°
2026-05-06 17:48 44.84644 16.88805 34939 ft 489 kts 137°
2026-05-06 17:48 44.80114 16.95885 34940 ft 489 kts 137°
2026-05-06 17:49 44.75544 17.03006 34946 ft 491 kts 137°
2026-05-06 17:49 44.70998 17.10071 34951 ft 492 kts 137°
2026-05-06 17:50 44.66404 17.17192 34956 ft 493 kts 137°
2026-05-06 17:50 44.61811 17.24298 34966 ft 493 kts 137°
2026-05-06 17:51 44.57240 17.31350 34976 ft 493 kts 137°
2026-05-06 17:51 44.52609 17.38477 34976 ft 495 kts 137°
2026-05-06 17:52 44.47979 17.45579 34982 ft 495 kts 137°
2026-05-06 17:52 44.43351 17.52663 34976 ft 497 kts 137°
2026-05-06 17:53 44.38684 17.59784 34980 ft 499 kts 137°
2026-05-06 17:53 44.34019 17.66894 34989 ft 498 kts 137°
2026-05-06 17:54 44.29340 17.74007 34983 ft 498 kts 138°
2026-05-06 17:54 44.24631 17.81136 34982 ft 501 kts 137°
2026-05-06 17:55 44.19942 17.88218 34984 ft 500 kts 137°
2026-05-06 17:55 44.15222 17.95338 34981 ft 499 kts 137°
2026-05-06 17:56 44.10538 18.02379 34983 ft 500 kts 137°
2026-05-06 17:56 44.05801 18.09486 34984 ft 501 kts 137°
2026-05-06 17:57 44.01065 18.16570 34993 ft 503 kts 137°
2026-05-06 17:57 43.96281 18.23710 34997 ft 505 kts 137°
2026-05-06 17:58 43.91495 18.30836 35017 ft 505 kts 137°
2026-05-06 17:58 43.86726 18.37921 35023 ft 504 kts 137°
2026-05-06 17:59 43.81937 18.45019 35032 ft 504 kts 137°
2026-05-06 17:59 43.77160 18.52077 35035 ft 504 kts 137°
2026-05-06 18:00 43.72347 18.59165 35026 ft 507 kts 137°
2026-05-06 18:00 43.67554 18.66206 35035 ft 506 kts 137°
2026-05-06 18:01 43.62694 18.73332 35034 ft 506 kts 137°
2026-05-06 18:01 43.57894 18.80354 35050 ft 506 kts 137°
2026-05-06 18:02 43.53058 18.87408 35047 ft 506 kts 137°
2026-05-06 18:02 43.48244 18.94415 35068 ft 505 kts 137°
2026-05-06 18:03 43.43430 19.01471 35065 ft 506 kts 136°
2026-05-06 18:03 43.38739 19.08471 35076 ft 493 kts 136°
2026-05-06 18:04 43.34087 19.15426 35078 ft 495 kts 136°
2026-05-06 18:04 43.29431 19.22346 35078 ft 496 kts 136°
2026-05-06 18:05 43.24754 19.29270 35097 ft 496 kts 136°
2026-05-06 18:05 43.20032 19.36236 35082 ft 498 kts 136°
2026-05-06 18:06 43.15342 19.43135 35088 ft 498 kts 135°
2026-05-06 18:06 43.10609 19.50077 35087 ft 499 kts 135°
2026-05-06 18:07 43.05873 19.57009 35071 ft 500 kts 135°
2026-05-06 18:07 43.01123 19.63947 35065 ft 500 kts 135°
2026-05-06 18:08 42.96391 19.70843 35065 ft 491 kts 135°
2026-05-06 18:08 42.94097 19.74185 35062 ft 479 kts 136°
2026-05-06 18:08 42.91827 19.77487 35059 ft 474 kts 135°
2026-05-06 18:09 42.87321 19.84014 35065 ft 481 kts 136°
2026-05-06 18:09 42.82700 19.90695 35075 ft 479 kts 136°
2026-05-06 18:10 42.78127 19.97294 35091 ft 481 kts 135°
2026-05-06 18:10 42.73541 20.03945 35110 ft 482 kts 134°
2026-05-06 18:11 42.69155 20.10961 35111 ft 494 kts 130°
2026-05-06 18:11 42.64822 20.18276 35102 ft 497 kts 130°
2026-05-06 18:12 42.60518 20.25524 35085 ft 495 kts 130°
2026-05-06 18:12 42.56164 20.32757 35061 ft 492 kts 131°
2026-05-06 18:13 42.51825 20.39889 35088 ft 495 kts 131°
2026-05-06 18:13 42.47464 20.47016 35050 ft 489 kts 131°
2026-05-06 18:14 42.43111 20.54103 35055 ft 491 kts 131°
2026-05-06 18:14 42.38743 20.61201 35052 ft 490 kts 131°
2026-05-06 18:15 42.34388 20.68261 35050 ft 491 kts 132°
2026-05-06 18:15 42.30024 20.75313 35043 ft 488 kts 131°
2026-05-06 18:16 42.25702 20.82288 35046 ft 488 kts 131°
2026-05-06 18:16 42.21321 20.89346 35052 ft 488 kts 131°
2026-05-06 18:17 42.16977 20.96330 35054 ft 488 kts 131°
2026-05-06 18:17 42.12632 21.03295 35055 ft 488 kts 131°
2026-05-06 18:18 42.08517 21.10592 35046 ft 488 kts 126°
2026-05-06 18:18 42.04749 21.18174 35041 ft 489 kts 123°
2026-05-06 18:19 42.01046 21.25837 35032 ft 488 kts 123°
2026-05-06 18:19 41.97349 21.33416 35096 ft 489 kts 124°
2026-05-06 18:20 41.93588 21.41021 35029 ft 490 kts 124°
2026-05-06 18:20 41.89813 21.48589 35038 ft 487 kts 124°
2026-05-06 18:21 41.86047 21.56099 35040 ft 489 kts 124°
2026-05-06 18:21 41.82245 21.63656 35031 ft 486 kts 124°
2026-05-06 18:22 41.78467 21.71146 35020 ft 488 kts 124°
2026-05-06 18:22 41.74668 21.78661 35012 ft 488 kts 125°
2026-05-06 18:23 41.70863 21.86165 35017 ft 488 kts 124°
2026-05-06 18:23 41.67046 21.93680 35018 ft 486 kts 124°
2026-05-06 18:24 41.63254 22.01127 35031 ft 488 kts 124°
2026-05-06 18:24 41.59446 22.08588 35028 ft 488 kts 124°
2026-05-06 18:25 41.55604 22.16095 35037 ft 488 kts 124°
2026-05-06 18:25 41.51778 22.23550 35046 ft 488 kts 124°
2026-05-06 18:26 41.47942 22.31008 35050 ft 489 kts 124°
2026-05-06 18:26 41.44111 22.38441 35052 ft 488 kts 124°
2026-05-06 18:27 41.40277 22.45861 35060 ft 488 kts 124°
2026-05-06 18:27 41.36430 22.53291 35052 ft 488 kts 124°
2026-05-06 18:28 41.32574 22.60715 35048 ft 488 kts 124°
2026-05-06 18:28 41.28708 22.68141 35044 ft 490 kts 125°
2026-05-06 18:29 41.24828 22.75568 35041 ft 490 kts 126°
2026-05-06 18:29 41.20633 22.82687 35042 ft 491 kts 130°
2026-05-06 18:30 41.16226 22.89519 35039 ft 490 kts 131°
2026-05-06 18:30 41.11726 22.96397 35043 ft 493 kts 131°
2026-05-06 18:31 41.07460 23.03438 35048 ft 492 kts 126°
2026-05-06 18:31 41.03607 23.10906 35053 ft 493 kts 123°
2026-05-06 18:32 40.99858 23.18509 35058 ft 491 kts 122°
2026-05-06 18:32 40.96127 23.26010 35062 ft 490 kts 123°
2026-05-06 18:33 40.92347 23.33493 35056 ft 492 kts 123°
2026-05-06 18:33 40.88519 23.40989 35053 ft 491 kts 123°
2026-05-06 18:34 40.84712 23.48405 35052 ft 491 kts 123°
2026-05-06 18:34 40.80878 23.55848 35052 ft 491 kts 123°
2026-05-06 18:35 40.77044 23.63274 35049 ft 491 kts 123°
2026-05-06 18:35 40.73225 23.70656 35045 ft 490 kts 124°
2026-05-06 18:36 40.69374 23.78081 35046 ft 490 kts 123°
2026-05-06 18:36 40.65516 23.85503 35047 ft 492 kts 124°
2026-05-06 18:37 40.61651 23.92920 35047 ft 492 kts 124°
2026-05-06 18:37 40.57792 24.00308 35036 ft 491 kts 123°
2026-05-06 18:38 40.53940 24.07661 35045 ft 492 kts 123°
2026-05-06 18:38 40.51992 24.11371 35163 ft 491 kts 124°
2026-05-06 18:38 40.50056 24.15055 35045 ft 490 kts 123°
2026-05-06 18:39 40.46193 24.22393 35050 ft 491 kts 123°
2026-05-06 18:40 40.40384 24.33400 35049 ft 491 kts 123°
2026-05-06 18:40 40.36496 24.40744 35049 ft 491 kts 123°
2026-05-06 18:41 40.32616 24.48056 35045 ft 492 kts 123°
2026-05-06 18:41 40.28695 24.55425 35049 ft 492 kts 123°
2026-05-06 18:42 40.24804 24.62721 35049 ft 492 kts 123°
2026-05-06 18:42 40.20886 24.70053 35047 ft 490 kts 124°
2026-05-06 18:43 40.16974 24.77358 35049 ft 491 kts 124°
2026-05-06 18:43 40.13068 24.84631 35048 ft 491 kts 123°
2026-05-06 18:44 40.09164 24.91884 35043 ft 490 kts 123°
2026-05-06 18:44 40.05248 24.99143 35046 ft 491 kts 123°
2026-05-06 18:45 40.01295 25.06454 35047 ft 492 kts 123°
2026-05-06 18:45 39.97374 25.13689 35048 ft 493 kts 123°
2026-05-06 18:46 39.93375 25.20948 35049 ft 492 kts 125°
2026-05-06 18:46 39.88856 25.27599 35049 ft 493 kts 135°
2026-05-06 18:47 39.83730 25.33573 35048 ft 494 kts 139°
2026-05-06 18:47 39.78500 25.39310 35049 ft 493 kts 139°
2026-05-06 18:48 39.73248 25.45075 35049 ft 494 kts 139°
2026-05-06 18:48 39.68027 25.50870 35049 ft 494 kts 139°
2026-05-06 18:49 39.62815 25.56704 35050 ft 495 kts 138°
2026-05-06 18:49 39.57621 25.62535 35050 ft 495 kts 138°
2026-05-06 18:50 39.52423 25.68372 35049 ft 495 kts 139°
2026-05-06 18:50 39.47208 25.74218 35049 ft 495 kts 139°
2026-05-06 18:51 39.42004 25.80039 35049 ft 494 kts 139°
2026-05-06 18:51 39.36800 25.85848 35050 ft 494 kts 139°
2026-05-06 18:52 39.31599 25.91642 35051 ft 494 kts 139°
2026-05-06 18:52 39.26402 25.97392 35053 ft 494 kts 139°
2026-05-06 18:53 39.21134 26.03071 35055 ft 495 kts 140°
2026-05-06 18:53 39.15853 26.08704 35052 ft 495 kts 140°
2026-05-06 18:54 39.10542 26.14362 35052 ft 495 kts 140°
2026-05-06 18:54 39.05236 26.20015 35055 ft 497 kts 140°
2026-05-06 18:55 38.99916 26.25682 35059 ft 498 kts 140°
2026-05-06 18:55 38.94583 26.31355 35066 ft 496 kts 140°
2026-05-06 18:56 38.89322 26.37073 35070 ft 496 kts 135°
2026-05-06 18:56 38.84924 26.43793 35072 ft 494 kts 120°
2026-05-06 18:57 38.81900 26.51608 35071 ft 490 kts 107°
2026-05-06 18:57 38.79889 26.59877 35070 ft 487 kts 100°
2026-05-06 18:58 38.77140 26.67820 35072 ft 496 kts 127°
2026-05-06 18:58 38.74702 26.70902 35071 ft 500 kts 143°
2026-05-06 18:58 38.71690 26.73114 35067 ft 499 kts 160°
2026-05-06 18:58 38.68373 26.74291 34613 ft 486 kts 177°
2026-05-06 18:59 38.65046 26.74272 33385 ft 480 kts 192°
2026-05-06 18:59 38.61839 26.73419 31779 ft 483 kts 200°
2026-05-06 18:59 38.58629 26.72170 30173 ft 487 kts 204°
2026-05-06 18:59 38.55418 26.70758 28798 ft 488 kts 205°
2026-05-06 19:00 38.52281 26.69311 28308 ft 478 kts 205°
2026-05-06 19:00 38.49172 26.67856 27950 ft 466 kts 205°
2026-05-06 19:00 38.46198 26.66462 27695 ft 454 kts 205°
2026-05-06 19:00 38.43250 26.65085 27466 ft 442 kts 205°
2026-05-06 19:01 38.40431 26.63775 27281 ft 429 kts 206°
2026-05-06 19:01 38.37666 26.62499 26891 ft 418 kts 205°
2026-05-06 19:01 38.34925 26.61269 26338 ft 414 kts 202°
2026-05-06 19:01 38.32106 26.60466 25718 ft 417 kts 191°
2026-05-06 19:02 38.29206 26.60304 25098 ft 418 kts 180°
2026-05-06 19:02 38.26358 26.60686 24523 ft 417 kts 178°
2026-05-06 19:02 38.23465 26.60738 23847 ft 410 kts 184°
2026-05-06 19:02 38.20660 26.61068 23198 ft 410 kts 166°
2026-05-06 19:03 38.18069 26.62582 22330 ft 410 kts 141°
2026-05-06 19:03 38.16156 26.65194 21464 ft 402 kts 117°
2026-05-06 19:03 38.15221 26.68439 20595 ft 388 kts 92°
2026-05-06 19:03 38.15385 26.71773 19720 ft 370 kts 67°
2026-05-06 19:04 38.16548 26.74528 18861 ft 353 kts 43°
2026-05-06 19:04 38.18470 26.76320 17997 ft 338 kts 19°
2026-05-06 19:04 38.20668 26.77172 17262 ft 328 kts
2026-05-06 19:04 38.22910 26.77689 16518 ft 323 kts
2026-05-06 19:05 38.25113 26.78098 15781 ft 319 kts
2026-05-06 19:05 38.27279 26.78469 15050 ft 315 kts
2026-05-06 19:05 38.29414 26.78822 14318 ft 312 kts
2026-05-06 19:05 38.31552 26.79168 13665 ft 308 kts
2026-05-06 19:06 38.33657 26.79510 13159 ft 303 kts
2026-05-06 19:06 38.35611 26.80347 12824 ft 300 kts 27°
2026-05-06 19:06 38.37227 26.82175 11120 ft 338 kts 53°
2026-05-06 19:06 38.38380 26.84762 10494 ft 332 kts 61°
2026-05-06 19:07 38.39017 26.87623 10131 ft 343 kts 85°
2026-05-06 19:07 38.38638 26.90661 9885 ft 349 kts 106°
2026-05-06 19:07 38.37548 26.93448 9630 ft 356 kts 125°
2026-05-06 19:07 38.35792 26.95642 9377 ft 353 kts 140°
2026-05-06 19:08 38.33790 26.97480 9133 ft 355 kts 144°
2026-05-06 19:08 38.31758 26.99203 8887 ft 352 kts 145°
2026-05-06 19:08 38.29715 27.00900 8648 ft 351 kts 145°
2026-05-06 19:08 38.27648 27.02608 8425 ft 350 kts 145°
2026-05-06 19:09 38.25563 27.04152 8157 ft 343 kts 157°
2026-05-06 19:09 38.23260 27.04845 7913 ft 333 kts 173°
2026-05-06 19:09 38.20996 27.05096 7655 ft 324 kts 173°
2026-05-06 19:09 38.18785 27.05652 7295 ft 318 kts 162°
2026-05-06 19:10 38.16707 27.06568 6891 ft 315 kts 158°
2026-05-06 19:10 38.14677 27.07590 6475 ft 312 kts 157°
2026-05-06 19:10 38.12660 27.08587 6059 ft 301 kts 158°
2026-05-06 19:10 38.10746 27.09479 5720 ft 295 kts 159°
2026-05-06 19:11 38.08745 27.10376 5271 ft 307 kts 158°
2026-05-06 19:11 38.06791 27.11515 5105 ft 303 kts 147°
2026-05-06 19:11 38.05325 27.13255 5014 ft 275 kts 120°
2026-05-06 19:11 38.04785 27.15397 4986 ft 240 kts 92°
2026-05-06 19:12 38.04900 27.17358 4991 ft 212 kts 76°
2026-05-06 19:12 38.05220 27.19077 4986 ft 188 kts 73°
2026-05-06 19:12 38.05698 27.20587 4737 ft 184 kts 52°
2026-05-06 19:12 38.06684 27.21532 4448 ft 171 kts 19°
2026-05-06 19:13 38.07829 27.21818 4095 ft 165 kts
2026-05-06 19:13 38.08910 27.21649 3782 ft 151 kts 345°
2026-05-06 19:13 38.09893 27.21291 3518 ft 140 kts 346°
2026-05-06 19:13 38.10831 27.21002 3341 ft 139 kts 348°
2026-05-06 19:14 38.11801 27.20718 3189 ft 141 kts 347°
2026-05-06 19:14 38.12754 27.20433 3031 ft 138 kts 347°
2026-05-06 19:14 38.13712 27.20145 2898 ft 141 kts 347°
2026-05-06 19:14 38.14678 27.19855 2755 ft 140 kts 347°
2026-05-06 19:15 38.15636 27.19568 2597 ft 140 kts 347°
2026-05-06 19:15 38.16599 27.19280 2451 ft 139 kts 347°
2026-05-06 19:15 38.17551 27.18994 2310 ft 139 kts 347°
2026-05-06 19:15 38.18494 27.18711 2163 ft 140 kts 347°
2026-05-06 19:16 38.19441 27.18427 2020 ft 139 kts 347°
2026-05-06 19:16 38.20396 27.18140 1892 ft 140 kts 347°
2026-05-06 19:16 38.21334 27.17858 1663 ft 135 kts 347°
2026-05-06 19:16 38.22227 27.17590 1491 ft 134 kts 347°
2026-05-06 19:17 38.23127 27.17321 1280 ft 132 kts 346°
2026-05-06 19:17 38.24034 27.17045 1075 ft 136 kts 346°
2026-05-06 19:17 38.24968 27.16768 893 ft 137 kts 347°
2026-05-06 19:17 38.25900 27.16491 730 ft 138 kts 347°
2026-05-06 19:18 38.26835 27.16194 569 ft 138 kts 347°
2026-05-06 19:18 38.27741 27.15927 406 ft 128 kts 347°
2026-05-06 19:18 38.28648 27.15656 583 ft 141 kts 347°
2026-05-06 19:18 38.29571 27.15389 785 ft 148 kts 347°
2026-05-06 19:19 38.30591 27.15101 945 ft 147 kts 348°
2026-05-06 19:19 38.31618 27.14810 946 ft 167 kts 347°
2026-05-06 19:19 38.32841 27.14415 1380 ft 188 kts 346°
2026-05-06 19:19 38.34067 27.14030 2091 ft 186 kts 347°
2026-05-06 19:20 38.35138 27.13711 2399 ft 203 kts 347°
2026-05-06 19:20 38.38124 27.14236 4534 ft 195 kts 57°
2026-05-06 19:21 38.38357 27.16483 5061 ft 206 kts 109°
2026-05-06 19:21 38.37437 27.17863 4998 ft 205 kts 153°
2026-05-06 19:21 38.36081 27.18426 4997 ft 205 kts 165°
2026-05-06 19:21 38.34669 27.18852 4995 ft 204 kts 165°
2026-05-06 19:22 38.33286 27.19268 4996 ft 206 kts 165°
2026-05-06 19:22 38.31792 27.19722 5002 ft 233 kts 165°
2026-05-06 19:22 38.30145 27.20228 4994 ft 243 kts 165°
2026-05-06 19:22 38.28475 27.20742 4994 ft 245 kts 165°
2026-05-06 19:23 38.26815 27.21254 4994 ft 246 kts 165°
2026-05-06 19:23 38.25146 27.21767 5001 ft 246 kts 165°
2026-05-06 19:23 38.23528 27.22265 4988 ft 230 kts 165°
2026-05-06 19:23 38.22018 27.22729 4991 ft 214 kts 165°
2026-05-06 19:24 38.20654 27.23337 4991 ft 197 kts 150°
2026-05-06 19:24 38.19496 27.24216 4996 ft 191 kts 144°
2026-05-06 19:24 38.18376 27.25124 4996 ft 192 kts 146°
2026-05-06 19:24 38.17209 27.26013 5004 ft 194 kts 148°
2026-05-06 19:25 38.16020 27.26892 5000 ft 200 kts 148°
2026-05-06 19:25 38.14836 27.27764 4992 ft 192 kts 148°
2026-05-06 19:25 38.13668 27.28628 5000 ft 191 kts 148°
2026-05-06 19:25 38.12520 27.29479 5001 ft 190 kts 148°
2026-05-06 19:26 38.11338 27.30356 5051 ft 204 kts 148°
2026-05-06 19:26 38.10096 27.31253 5372 ft 203 kts 151°
2026-05-06 19:26 38.08708 27.31533 5025 ft 205 kts 195°
2026-05-06 19:26 38.07590 27.30587 4976 ft 184 kts 234°
2026-05-06 19:27 38.06979 27.29205 4973 ft 175 kts 252°
2026-05-06 19:27 38.06712 27.27733 4963 ft 174 kts 265°
2026-05-06 19:27 38.06531 27.26198 4831 ft 166 kts 262°
2026-05-06 19:27 38.06294 27.24763 4453 ft 171 kts 262°
2026-05-06 19:28 38.06325 27.23244 3965 ft 172 kts 295°
2026-05-06 19:28 38.07079 27.22243 3753 ft 149 kts 335°
2026-05-06 19:28 38.08042 27.21827 3624 ft 143 kts 347°
2026-05-06 19:28 38.09021 27.21547 3489 ft 141 kts 348°
2026-05-06 19:29 38.09987 27.21262 3359 ft 141 kts 347°
2026-05-06 19:29 38.10946 27.20973 3225 ft 141 kts 347°
2026-05-06 19:29 38.11903 27.20688 3091 ft 141 kts 347°
2026-05-06 19:29 38.12852 27.20403 2956 ft 141 kts 347°
2026-05-06 19:30 38.13807 27.20116 2822 ft 140 kts 347°
2026-05-06 19:30 38.14758 27.19831 2688 ft 140 kts 347°
2026-05-06 19:30 38.15715 27.19544 2551 ft 140 kts 347°
2026-05-06 19:30 38.16665 27.19260 2417 ft 139 kts 347°
2026-05-06 19:31 38.17617 27.18974 2282 ft 140 kts 347°
2026-05-06 19:31 38.18555 27.18693 2146 ft 139 kts 347°
2026-05-06 19:31 38.20456 27.18122 1881 ft 141 kts 346°
2026-05-06 19:32 38.21416 27.17831 1607 ft 140 kts 346°
2026-05-06 19:32 38.22356 27.17538 1368 ft 137 kts 346°
2026-05-06 19:32 38.23284 27.17265 1187 ft 136 kts 347°
2026-05-06 19:32 38.24239 27.16990 1041 ft 139 kts 347°
2026-05-06 19:33 38.25176 27.16701 840 ft 138 kts 346°
2026-05-06 19:33 38.26109 27.16410 696 ft 137 kts 347°
2026-05-06 19:33 38.27040 27.16140 547 ft 137 kts 348°
2026-05-06 19:33 38.27960 27.15866 403 ft 135 kts 348°
2026-05-06 19:34 38.28759 27.15624 402 ft 89 kts 347°
2026-05-06 19:34 38.29120 27.15516 405 ft 23 kts 346°
2026-05-06 19:34 38.29281 27.15469 405 ft 22 kts 348°
2026-05-06 19:34 38.29363 27.15445 405 ft 11 kts 343°
2026-05-06 19:35 38.29378 27.15362 405 ft 10 kts 258°
2026-05-06 19:35 38.29386 27.15251 403 ft 24 kts 311°
2026-05-06 19:35 38.29611 27.15039 404 ft 38 kts 329°
2026-05-06 19:35 38.29711 27.14962 407 ft 4 kts 297°
2026-05-06 19:36 38.29713 27.14951 407 ft 0 kts 269°
2026-05-06 19:36 38.29710 27.14942 408 ft 1 kts 249°
2026-05-06 19:36 38.29709 27.14938 408 ft 0 kts 256°
2026-05-06 19:39 38.29709 27.14937 407 ft 0 kts 256°